Probability
58 84 94 94 97 97 97 97 97 97 97 97 97 97 97 97 97 97 94 94 94 90 94 90 90 87 94 90 90 94 90 94 90 87 87 90 84 94 90 90 74 61 87
74 84 100 94 97 97 97 97 97 97 97 94 97 97 97 97 97 97 97 94 90 87 90 87 87 94 90 94 94 94 94 94 94 94 90 94 87 81 84 84 68 71 81
81 84 94 100 97 97 97 97 97 97 97 94 97 97 97 97 94 94 90 90 90 94 90 90 87 90 90 90 87 87 87 94 90 90 77 39 77 81 81 87 81 81 84
77 84 87 100 100 100 97 97 97 97 97 97 97 97 97 97 94 94 94 94 94 94 94 94 94 87 84 90 90 94 94 87 74 55 26 32 55 81 84 87 87 87 84
71 81 97 100 100 100 100 97 97 97 97 97 94 97 94 100 97 97 94 94 94 94 94 94 94 81 84 90 94 94 94 90 81 45 23 26 52 90 87 84 81 81 84
71 87 100 100 100 100 100 100 97 97 97 97 94 94 97 97 97 100 94 97 97 97 94 90 90 77 81 74 81 84 77 74 42 23 19 35 58 84 81 81 74 74 77
81 90 100 100 100 100 100 100 100 100 100 100 100 97 97 100 100 100 100 97 100 94 90 81 81 77 71 68 71 77 77 65 13 13 23 29 58 90 84 71 77 71 71
90 94 97 97 97 97 97 97 100 100 100 100 100 100 100 100 100 100 100 100 100 90 87 81 77 77 68 65 81 81 81 65 35 23 26 35 74 87 84 74 71 71 71
87 94 94 97 97 97 97 97 97 97 97 100 100 100 100 100 100 100 100 97 94 84 81 68 58 55 52 65 81 84 84 77 13 6 26 48 77 84 81 77 71 71 71
77 90 94 94 97 97 97 97 97 100 97 97 97 100 100 100 100 100 100 100 87 84 68 55 45 42 58 58 68 77 84 48 6 6 19 58 87 81 84 81 74 68 71
61 68 84 81 84 90 97 97 94 94 94 97 94 94 90 74 81 87 94 94 81 77 71 58 61 61 71 65 68 81 58 3 0 6 19 68 81 81 84 81 77 77 74
52 55 58 55 61 65 87 94 94 90 90 84 84 77 71 45 48 77 87 90 81 74 68 77 81 68 52 19 13 35 6 0 0 6 29 77 81 81 81 84 77 77 71
45 52 45 55 58 52 55 77 77 68 68 65 58 52 45 32 42 45 48 74 61 61 26 48 48 32 19 6 3 0 0 0 0 6 35 87 81 84 81 81 71 71 68
32 45 35 52 42 35 32 58 58 55 55 48 42 39 32 32 19 19 19 26 19 16 16 13 10 6 3 3 3 0 0 0 0 10 29 74 81 81 71 71 77 74 68
26 35 42 45 42 39 39 45 48 45 48 48 42 42 26 16 19 10 23 23 23 19 13 13 10 0 0 0 0 0 0 0 3 3 19 65 77 81 71 68 65 68 68
45 48 45 55 58 42 39 48 48 55 48 48 42 32 29 16 16 16 6 19 13 13 16 16 10 6 0 0 3 3 0 0 0 3 10 45 74 84 81 74 58 68 65
48 58 58 65 58 55 48 52 58 45 45 48 45 39 29 23 23 10 10 16 10 3 6 6 6 0 0 0 0 0 0 0 3 3 10 10 26 71 77 81 74 74 65
55 61 61 68 68 58 58 61 58 32 42 48 48 35 23 29 13 13 13 16 13 13 6 6 6 3 3 0 0 0 3 0 0 3 3 0 6 10 48 68 74 71 65
55 55 71 61 61 71 65 58 65 55 52 39 45 39 23 26 23 13 10 13 16 16 10 6 6 3 3 0 3 3 3 3 6 6 3 3 3 3 6 32 77 74 58
68 65 81 65 58 71 71 65 55 55 48 35 45 39 32 23 29 16 6 16 16 13 13 10 6 6 3 0 3 3 0 0 0 0 0 0 3 3 6 10 19 39 61
74 77 77 74 71 74 68 65 52 48 39 42 32 35 32 23 26 19 23 19 16 13 6 3 6 3 3 3 0 0 0 0 0 0 0 0 0 0 3 6 6 3 10
90 81 71 71 77 74 71 65 48 45 35 35 35 35 32 29 29 39 23 19 19 16 10 6 3 3 3 3 0 0 0 0 0 0 0 0 0 0 0 0 3 3 3
81 81 77 68 71 77 74 74 71 55 45 45 32 35 39 39 35 39 26 19 16 13 13 13 13 6 6 3 3 0 0 0 0 0 0 0 0 0 0 0 3 3 0
81 84 84 61 74 74 71 68 61 55 45 42 35 32 35 45 39 39 35 32 19 19 16 13 13 13 6 3 3 3 0 0 0 0 0 0 0 0 0 3 3 3 3
84 81 74 71 61 71 71 65 55 48 45 35 42 39 35 35 42 35 39 29 26 23 19 16 10 10 10 6 6 3 3 0 0 0 0 0 0 0 0 3 6 3 3
77 77 71 65 65 61 61 58 52 45 42 35 32 32 32 32 35 39 39 29 23 19 16 13 10 10 13 13 13 3 0 3 0 0 0 0 0 0 0 0 3 3 0
Height
5902 5901 5901 5901 5901 5901 5901 5900 5900 5900 5900 5899 5899 5899 5898 5898 5897 5897 5896 5895 5895 5894 5894 5893 5893 5893 5893 5893 5892 5892 5892 5892 5892 5892 5892 5892 5891 5891 5891 5891 5891 5891 5891
5903 5903 5903 5902 5902 5902 5902 5902 5902 5902 5902 5901 5901 5900 5900 5899 5899 5898 5898 5897 5896 5896 5895 5895 5895 5895 5894 5894 5894 5894 5894 5893 5893 5893 5893 5893 5893 5892 5892 5892 5892 5892 5892
5904 5904 5904 5904 5904 5904 5904 5903 5903 5903 5903 5903 5902 5902 5901 5901 5900 5900 5899 5898 5898 5898 5897 5896 5896 5896 5896 5896 5895 5895 5895 5895 5895 5894 5894 5894 5894 5894 5893 5893 5894 5893 5894
5905 5905 5905 5905 5905 5905 5905 5905 5904 5904 5904 5904 5904 5903 5903 5902 5902 5901 5900 5900 5900 5899 5899 5898 5898 5897 5897 5897 5897 5897 5896 5896 5895 5895 5895 5895 5895 5895 5895 5895 5895 5895 5895
5907 5907 5907 5906 5906 5906 5906 5906 5906 5906 5905 5905 5905 5905 5904 5904 5903 5903 5902 5901 5901 5901 5900 5899 5899 5899 5899 5898 5898 5898 5897 5897 5897 5896 5896 5896 5896 5896 5896 5896 5896 5896 5896
5908 5908 5908 5908 5907 5907 5907 5907 5907 5907 5907 5907 5906 5906 5906 5905 5904 5904 5903 5903 5902 5902 5901 5901 5901 5900 5900 5900 5899 5899 5898 5898 5898 5898 5898 5898 5898 5898 5898 5898 5897 5897 5897
5910 5910 5909 5909 5909 5908 5908 5908 5908 5908 5908 5908 5908 5907 5907 5906 5906 5905 5905 5904 5904 5903 5903 5902 5902 5902 5901 5901 5900 5900 5900 5900 5899 5899 5899 5899 5899 5899 5899 5899 5899 5899 5898
5911 5911 5911 5910 5910 5909 5909 5910 5910 5909 5909 5909 5909 5908 5908 5907 5907 5906 5906 5905 5905 5905 5904 5904 5903 5903 5902 5902 5901 5901 5901 5901 5900 5900 5900 5900 5900 5900 5900 5900 5900 5900 5900
5912 5912 5911 5911 5910 5910 5910 5911 5911 5910 5910 5910 5909 5909 5909 5908 5908 5907 5907 5907 5906 5906 5905 5905 5904 5904 5903 5903 5902 5902 5902 5902 5902 5902 5902 5901 5901 5901 5901 5901 5901 5900 5900
5913 5913 5912 5911 5911 5911 5911 5911 5911 5911 5911 5911 5910 5909 5909 5909 5909 5908 5908 5908 5907 5907 5906 5905 5905 5905 5904 5904 5904 5903 5903 5903 5903 5903 5903 5902 5902 5902 5902 5902 5902 5901 5901
5914 5913 5912 5912 5911 5911 5911 5912 5912 5912 5912 5911 5911 5910 5910 5910 5909 5909 5909 5908 5908 5907 5907 5906 5906 5906 5905 5905 5905 5904 5904 5904 5904 5904 5904 5903 5903 5903 5903 5903 5902 5902 5902
5915 5914 5913 5912 5912 5911 5911 5912 5912 5912 5912 5912 5911 5911 5911 5910 5910 5910 5909 5909 5909 5908 5908 5907 5907 5906 5906 5906 5905 5905 5905 5905 5905 5905 5905 5904 5904 5904 5904 5904 5903 5903 5903
5915 5914 5913 5913 5912 5911 5912 5912 5912 5912 5912 5912 5912 5911 5911 5911 5910 5910 5910 5910 5909 5909 5908 5908 5907 5907 5907 5906 5906 5906 5906 5906 5906 5906 5905 5905 5905 5905 5904 5904 5904 5904 5904
5917 5915 5914 5913 5912 5912 5912 5912 5912 5912 5911 5912 5912 5912 5911 5911 5911 5910 5910 5910 5910 5909 5909 5908 5908 5908 5908 5908 5907 5907 5907 5907 5907 5906 5906 5906 5906 5905 5905 5905 5905 5904 5904
5917 5916 5915 5913 5913 5912 5912 5912 5912 5912 5912 5912 5911 5911 5911 5911 5911 5911 5911 5910 5910 5910 5909 5909 5909 5909 5909 5908 5908 5908 5907 5907 5907 5907 5906 5906 5906 5906 5905 5905 5905 5904 5904
5917 5915 5914 5913 5913 5913 5912 5912 5912 5912 5912 5911 5911 5911 5911 5911 5911 5911 5911 5911 5910 5910 5910 5910 5909 5909 5909 5909 5909 5908 5908 5908 5908 5907 5907 5907 5906 5906 5906 5905 5905 5904 5904
5917 5916 5914 5914 5913 5913 5912 5912 5912 5912 5911 5911 5911 5910 5911 5911 5911 5911 5911 5911 5911 5910 5910 5910 5909 5910 5910 5910 5909 5909 5909 5908 5908 5907 5907 5907 5907 5906 5906 5905 5904 5904 5904
5918 5917 5915 5914 5913 5913 5912 5912 5912 5912 5911 5911 5910 5910 5910 5910 5910 5911 5911 5910 5910 5910 5910 5910 5909 5909 5909 5909 5909 5909 5909 5908 5908 5907 5907 5906 5906 5906 5905 5905 5904 5904 5903
5919 5917 5916 5915 5914 5913 5913 5912 5912 5911 5911 5910 5910 5910 5909 5910 5910 5910 5910 5910 5910 5910 5910 5910 5909 5909 5909 5909 5909 5909 5908 5908 5907 5907 5906 5906 5905 5905 5905 5904 5904 5903 5902
5919 5918 5916 5915 5914 5913 5912 5912 5912 5911 5911 5910 5910 5909 5909 5909 5909 5909 5909 5909 5909 5909 5909 5909 5909 5908 5908 5908 5908 5908 5908 5907 5906 5906 5905 5905 5904 5904 5903 5903 5902 5902 5901
5919 5918 5916 5915 5913 5912 5912 5911 5911 5910 5910 5909 5909 5908 5908 5909 5908 5908 5908 5908 5908 5908 5908 5908 5907 5907 5907 5907 5907 5907 5907 5906 5905 5905 5904 5903 5902 5902 5902 5901 5900 5900 5900
5918 5917 5916 5914 5913 5912 5911 5910 5910 5909 5909 5908 5908 5908 5908 5908 5907 5907 5907 5907 5907 5907 5906 5906 5906 5906 5906 5906 5905 5905 5905 5905 5904 5903 5903 5902 5901 5900 5899 5899 5898 5898 5897
5917 5916 5915 5913 5912 5911 5910 5909 5909 5908 5907 5907 5907 5907 5906 5906 5906 5906 5905 5905 5905 5905 5905 5904 5904 5904 5904 5903 5903 5903 5902 5902 5901 5901 5900 5900 5899 5898 5897 5896 5895 5895 5894
5917 5915 5914 5912 5911 5910 5909 5908 5907 5907 5906 5905 5905 5905 5905 5904 5904 5904 5903 5903 5903 5903 5902 5902 5902 5901 5901 5900 5900 5900 5900 5899 5899 5898 5898 5897 5896 5895 5895 5894 5892 5891 5890
5915 5913 5912 5911 5909 5908 5907 5906 5905 5905 5904 5904 5903 5903 5903 5902 5902 5901 5901 5900 5900 5900 5900 5899 5899 5898 5898 5897 5897 5896 5896 5896 5895 5895 5894 5894 5893 5892 5891 5890 5889 5888 5887
5913 5912 5910 5908 5907 5906 5905 5904 5904 5903 5902 5902 5901 5900 5900 5900 5899 5899 5898 5898 5897 5897 5896 5895 5895 5895 5894 5894 5893 5893 5892 5892 5891 5891 5890 5889 5889 5888 5887 5886 5885 5884 5883
Wind_Speed
11 11 10 10 9 9 9 9 8 7 7 7 7 7 8 7 8 9 9 9 9 9 10 10 10 10 10 10 10 9 9 9 9 9 9 8 8 8 8 8 8 8 7
10 10 10 10 9 8 8 7 7 7 6 6 6 7 7 7 8 8 9 9 9 9 9 9 9 9 9 9 9 9 9 9 9 9 9 9 8 8 8 8 8 7 7
10 10 9 9 9 9 8 7 7 6 6 6 6 6 7 7 7 8 8 8 8 8 8 8 8 8 9 9 9 9 9 9 9 9 9 9 8 8 8 8 7 7 7
9 9 9 9 9 8 8 7 7 6 6 6 6 6 6 6 6 7 7 7 7 8 8 8 8 8 8 8 8 8 8 8 8 8 8 8 8 8 8 8 8 8 7
9 9 9 8 8 7 7 7 6 6 6 5 5 5 5 5 5 6 6 7 7 7 7 7 7 7 8 8 8 8 8 8 8 8 8 8 8 8 8 8 8 8 8
9 8 8 7 7 6 6 6 6 6 5 5 5 5 5 5 5 5 5 6 6 6 7 7 7 7 7 7 7 8 8 7 7 8 8 7 7 7 7 7 7 8 7
9 8 7 7 6 6 6 6 6 6 5 5 5 4 4 4 5 5 5 5 5 6 6 6 6 6 6 7 7 7 7 7 7 8 7 7 7 6 7 7 7 7 7
9 8 7 7 6 5 5 5 5 5 5 5 5 4 4 5 5 5 5 5 5 5 6 6 6 6 6 6 7 7 7 8 8 7 7 6 6 6 6 6 6 6 6
9 8 7 7 5 4 4 4 5 5 5 5 5 4 4 5 4 4 4 5 5 5 5 6 6 6 6 6 7 7 7 7 7 7 6 6 6 5 6 6 6 6 5
8 7 7 7 6 4 4 4 4 4 4 4 4 4 4 4 4 4 4 4 5 5 5 5 5 6 6 6 6 6 6 6 6 6 6 5 5 5 5 5 5 5 5
8 7 7 7 6 5 3 3 3 3 3 3 3 3 3 3 4 4 4 5 5 5 5 5 6 6 6 6 6 6 5 5 5 5 5 5 5 5 5 5 5 5 4
9 8 8 7 6 5 3 3 3 3 2 2 3 3 3 3 3 3 4 4 4 4 4 5 5 5 6 5 5 5 5 4 4 4 5 5 5 5 4 4 4 4 4
9 8 8 7 7 5 3 2 2 3 2 2 2 2 2 2 2 3 3 3 4 4 4 4 5 5 5 5 4 4 4 4 3 4 4 4 4 4 4 3 3 2 3
9 9 8 7 7 5 4 3 3 3 3 1 1 2 2 2 2 3 3 3 3 3 3 4 4 5 5 5 4 4 4 3 3 3 4 4 4 3 3 3 2 2 2
10 9 9 8 7 6 5 4 3 3 2 2 1 1 1 2 2 2 3 3 3 3 3 3 3 4 4 4 4 4 3 3 3 2 3 3 3 3 2 2 1 1 1
11 10 9 8 7 6 6 5 4 4 3 2 1 1 0 1 1 1 2 2 2 3 3 2 2 2 2 2 2 2 2 2 2 1 1 1 1 1 1 1 1 0 1
11 10 9 8 7 6 5 4 5 5 4 3 2 1 1 2 1 1 1 1 2 2 2 2 1 1 1 1 1 1 1 1 1 1 0 1 1 1 1 1 1 1 2
11 11 9 8 6 5 5 4 4 3 3 3 2 1 1 1 1 1 1 1 1 0 0 1 1 0 0 1 1 0 0 1 1 1 1 2 2 3 2 2 2 3 3
10 11 10 8 7 6 4 4 3 2 2 2 1 1 0 1 1 1 1 1 1 1 1 1 1 2 2 2 2 2 2 2 2 3 3 3 4 4 4 4 4 4 4
10 10 9 9 7 6 5 3 3 3 3 2 1 1 1 1 2 2 2 2 2 2 2 2 3 3 3 3 3 4 4 4 4 4 5 5 6 6 6 6 6 6 7
9 9 9 8 7 6 5 4 3 3 3 2 2 3 3 3 3 3 3 3 3 3 3 3 3 4 5 5 5 6 6 6 6 6 6 7 7 7 8 8 8 8 9
9 9 9 8 8 6 5 5 3 3 3 3 3 4 4 4 4 4 5 5 4 4 4 4 5 6 6 6 7 7 8 8 8 8 8 9 9 9 9 10 10 11 12
9 10 10 9 8 7 6 6 5 4 4 4 5 4 5 6 6 6 7 7 6 7 7 7 7 7 8 8 9 9 9 9 10 10 10 10 11 11 12 13 13 13 13
10 11 11 10 8 7 6 5 5 5 5 5 5 6 7 7 7 8 8 8 8 8 9 9 9 9 9 10 10 10 11 11 11 12 12 12 12 12 13 13 14 14 14
11 11 11 10 9 8 7 6 5 5 6 6 6 7 7 7 7 8 9 9 10 10 10 11 11 11 11 11 11 12 12 12 13 13 13 13 14 14 14 14 14 15 16
11 11 12 11 9 8 7 7 6 7 7 7 7 7 7 8 9 9 10 10 11 12 13 13 14 13 12 12 12 12 13 13 14 14 15 16 16 16 16 16 16 17 17
Wind_Direction
72 71 70 70 69 69 72 74 70 68 72 73 73 75 74 71 75 76 78 79 80 82 83 84 86 88 89 90 89 87 86 87 87 89 90 91 91 93 94 92 87 84 89
70 69 67 68 68 69 67 64 60 57 63 67 64 65 63 68 73 75 78 80 81 82 84 85 86 86 87 87 87 87 85 85 85 87 89 88 88 91 91 87 87 88 94
68 70 68 66 66 66 64 59 56 55 54 53 55 56 59 67 75 77 79 79 81 82 82 83 83 82 83 84 85 86 86 85 85 84 86 86 86 88 88 89 93 97 98
64 67 68 66 67 66 62 59 56 55 55 54 54 56 58 66 72 74 78 79 78 78 78 79 81 81 82 83 83 82 81 84 85 84 87 88 87 87 90 92 92 94 95
62 64 65 63 65 65 61 58 53 53 50 48 48 52 56 64 69 71 75 78 76 73 74 78 78 79 80 80 80 78 78 84 86 86 88 90 91 93 93 92 91 90 93
57 57 58 57 59 60 58 55 52 48 44 42 41 47 52 62 67 71 74 75 72 69 73 75 77 76 76 76 78 78 80 84 88 87 88 92 94 97 98 96 93 94 95
53 51 49 48 52 56 56 53 50 47 43 39 40 43 50 57 62 68 70 69 67 66 69 71 71 71 74 78 81 82 85 90 92 91 90 91 94 100 101 98 95 93 94
50 47 44 45 49 53 55 52 48 47 42 38 38 45 53 55 63 66 65 59 57 59 63 66 66 69 75 78 80 83 87 92 92 92 92 93 94 100 105 101 96 94 94
44 45 43 44 43 49 50 48 46 44 37 36 36 45 52 58 64 63 60 55 51 54 59 61 66 70 75 80 82 85 91 89 89 89 90 91 93 100 106 104 102 99 97
37 40 41 40 39 44 54 50 46 40 36 37 40 44 49 57 64 62 57 51 47 49 53 60 65 71 77 82 84 86 91 91 92 90 86 87 91 99 107 104 100 99 98
38 39 36 37 37 46 57 54 49 44 43 42 43 45 52 60 57 53 53 50 49 51 54 61 64 70 75 77 82 86 89 94 95 92 86 86 92 96 100 99 96 95 98
38 39 36 33 34 45 54 56 54 48 49 53 49 50 52 60 50 40 43 48 54 56 58 63 64 66 71 75 80 85 88 91 92 93 89 89 91 90 94 98 97 93 100
33 36 33 33 36 39 46 51 56 56 65 67 47 58 47 45 48 42 35 44 54 61 60 60 65 64 65 72 82 86 88 90 88 89 91 93 91 87 89 89 95 100 109
36 39 38 37 42 43 41 35 49 55 62 55 40 48 44 46 57 54 48 42 50 64 60 56 67 65 65 69 75 83 84 87 87 88 93 90 88 83 81 80 85 103 111
35 39 41 46 52 55 52 54 47 48 54 63 57 58 51 48 38 59 52 48 53 57 64 63 61 59 60 61 67 73 77 77 85 86 94 89 90 82 74 74 83 121 147
31 35 39 48 54 57 62 63 56 53 52 50 54 51 75 77 49 114 84 62 58 56 65 64 68 69 70 58 64 78 75 59 65 74 95 96 100 74 62 61 49 237 220
30 33 34 42 48 51 57 59 57 50 37 27 21 65 104 102 101 109 107 107 70 57 61 61 69 74 73 65 71 94 96 51 24 27 281 277 283 288 294 299 288 273 260
26 28 31 35 42 46 50 55 55 39 28 22 24 67 106 107 111 135 165 170 148 50 32 15 347 331 298 286 321 307 312 327 315 312 287 274 277 276 274 268 272 273 267
19 21 23 26 27 33 40 35 27 11 8 6 0 43 81 164 185 203 196 195 212 245 267 275 263 272 274 275 288 277 273 285 297 304 291 274 271 274 275 268 268 270 268
9 10 14 14 12 14 15 9 356 343 346 344 306 294 276 250 233 232 229 240 260 264 265 267 249 262 273 279 278 274 277 279 280 286 287 278 271 270 275 272 269 271 272
2 2 4 1 358 354 354 353 351 338 326 318 290 279 273 261 249 252 251 252 260 268 278 283 264 264 271 271 272 273 278 279 277 277 274 278 281 278 272 268 269 272 273
356 356 355 353 349 342 339 342 344 334 322 303 292 286 265 257 253 258 264 262 265 269 277 285 277 269 269 267 270 272 276 277 279 276 275 277 279 281 275 271 273 273 272
350 348 347 347 344 336 328 327 323 317 306 285 274 284 277 266 260 262 266 271 268 271 276 280 278 272 267 267 268 270 271 270 273 276 276 277 276 278 278 277 274 273 273
344 343 340 338 338 338 329 317 311 310 308 289 274 281 281 273 266 269 273 276 276 274 273 275 276 274 272 273 271 270 270 272 273 275 276 274 275 278 278 278 277 280 277
339 336 333 329 328 329 326 320 306 296 301 297 283 280 279 274 274 279 278 276 274 272 272 273 275 276 276 276 274 272 272 275 274 275 275 274 276 277 278 278 277 277 276
333 332 332 326 325 325 321 315 306 296 293 293 284 277 278 280 282 285 283 280 276 274 274 274 277 277 274 273 273 273 275 278 277 275 276 275 276 277 276 277 277 276 277